Weather History for Omak, WA

Change the Weather History Date:

Tuesday, December 17, 2013

  Actual Average Record
Temperature  
Mean Temperature 32 °F 25 °F  
Max Temperature 35 °F 31 °F 53 °F (1999)
Min Temperature 28 °F 19 °F -12 °F (1964)
Degree Days  
Heating Degree Days 33 40  
Month to date heating degree days 736 648  
Since 1 July heating degree days 2333 2181  
Cooling Degree Days 0 0  
Month to date cooling degree days 0 0  
Year to date cooling degree days 814 665  
Moisture  
Dew Point 28 °F    
Average Humidity 91    
Maximum Humidity 100    
Minimum Humidity 82    
Precipitation  
Precipitation 0.00 in 0.09 in 0.41 in (1931)
Month to date precipitation T 1.25  
Year to date precipitation 9.89 13.76  
Sea Level Pressure  
Sea Level Pressure 30.17 in    
Wind  
Wind Speed 1 mph (SE)    
Max Wind Speed 8 mph    
Max Gust Speed 9 mph    
Visibility 6 miles    
Events Fog    
T = Trace of Precipitation, MM = Missing Value Source: NWS Daily Summary

Daily Weather History Graph

Daily Weather History Graph

Search for Another Location

Airport:

Trip Planner

Search our weather history database for the weather conditions in past years. The results will help you decide how hot, cold, wet, or windy it might be!

Date:

Astronomy

Dec. 17, 2013 Rise Set
Actual Time 7:44 AM PST 4:03 PM PST
Civil Twilight 7:08 AM PST 4:40 PM PST
Nautical Twilight 6:27 AM PST 5:20 PM PST
Astronomical Twilight 5:49 AM PST 5:59 PM PST
Moon 4:53 PM PST 7:40 AM PST
Length of Visible Light 9h 32m
Length of Day
8h 18m
Full, 100% of the Moon is Illuminated
Dec 17
Full
Dec 25
Last Quarter
Jan 1
New
Jan 7
First Quarter
Jan 15
Full

Hourly Weather History & Observations

Time (PST) Temp. Windchill Dew Point Humidity Pressure Visibility Wind Dir Wind Speed Gust Speed Precip Events Conditions
12:43 AM 28.4 °F 22.2 °F 26.6 °F 93% 30.30 in 1.8 mi SE 5.8 mph - N/A   Overcast
12:53 AM 28.9 °F 22.8 °F 27.0 °F 92% 30.34 in 1.0 mi SE 5.8 mph - N/A   Overcast
1:03 AM 28.4 °F 22.2 °F 28.4 °F 100% 30.29 in 0.8 mi SE 5.8 mph - N/A   Mist
1:21 AM 30.2 °F 24.3 °F 28.4 °F 93% 30.29 in 1.0 mi SE 5.8 mph - N/A   Mist
1:35 AM 30.2 °F 24.3 °F 28.4 °F 93% 30.28 in 0.5 mi SE 5.8 mph - N/A Fog Light Freezing Fog
1:49 AM 30.2 °F 25.4 °F 28.4 °F 93% 30.28 in 1.2 mi SSE 4.6 mph - N/A   Overcast
1:53 AM 28.9 °F 22.8 °F 28.0 °F 96% 30.32 in 1.2 mi SE 5.8 mph - N/A   Overcast
1:57 AM 28.4 °F 22.2 °F 28.4 °F 100% 30.28 in 0.8 mi SSE 5.8 mph - N/A   Mist
2:13 AM 28.4 °F 23.3 °F 28.4 °F 100% 30.28 in 0.2 mi SSE 4.6 mph - N/A Fog Light Freezing Fog
2:53 AM 28.9 °F - 28.0 °F 96% 30.31 in 0.2 mi Calm Calm - N/A Fog Light Freezing Fog
3:30 AM 28.4 °F - 28.4 °F 100% 30.24 in 0.5 mi Calm Calm - N/A Fog Light Freezing Fog
3:43 AM 28.4 °F - 28.4 °F 100% 30.24 in 1.2 mi Calm Calm - N/A   Overcast
3:50 AM 28.4 °F 24.6 °F 28.4 °F 100% 30.24 in 3.0 mi SSW 3.5 mph - N/A   Overcast
3:53 AM 28.9 °F 25.2 °F 27.0 °F 92% 30.28 in 5.0 mi South 3.5 mph - N/A   Overcast
4:53 AM 28.9 °F - 28.0 °F 96% 30.27 in 8.0 mi Calm Calm - N/A   Overcast
5:53 AM 28.9 °F 25.2 °F 27.0 °F 92% 30.25 in 8.0 mi East 3.5 mph - N/A   Overcast
6:05 AM 28.4 °F - 28.4 °F 100% 30.20 in 7.0 mi Calm Calm - N/A   Overcast
6:40 AM 30.2 °F - 28.4 °F 93% 30.18 in 7.0 mi Calm Calm - N/A   Overcast
6:53 AM 28.9 °F - 27.0 °F 92% 30.23 in 7.0 mi Calm Calm - N/A   Overcast
7:05 AM 28.4 °F 21.2 °F 26.6 °F 93% 30.17 in 8.0 mi SSE 6.9 mph - N/A   Overcast
7:39 AM 28.4 °F 22.2 °F 28.4 °F 100% 30.15 in 1.8 mi SE 5.8 mph - N/A   Overcast
7:44 AM 28.4 °F 22.2 °F 28.4 °F 100% 30.15 in 0.8 mi SE 5.8 mph - N/A   Mist
7:53 AM 28.9 °F 25.2 °F 28.0 °F 96% 30.19 in 1.0 mi SE 3.5 mph - N/A   Mist
7:58 AM 28.4 °F - 28.4 °F 100% 30.14 in 2.0 mi Calm Calm - N/A   Overcast
8:06 AM 30.2 °F - 28.4 °F 93% 30.14 in 4.0 mi Calm Calm - N/A   Overcast
8:53 AM 28.9 °F 21.9 °F 27.0 °F 92% 30.18 in 7.0 mi SE 6.9 mph - N/A   Overcast
9:53 AM 30.0 °F - 28.0 °F 92% 30.17 in 10.0 mi Calm Calm - N/A   Overcast
10:10 AM 30.2 °F 25.4 °F 28.4 °F 93% 30.12 in 10.0 mi SE 4.6 mph - N/A   Overcast
10:53 AM 33.1 °F - 28.9 °F 85% 30.17 in 10.0 mi Calm Calm - N/A   Overcast
11:53 AM 34.0 °F - 28.9 °F 82% 30.14 in 10.0 mi Calm Calm - N/A   Overcast
12:39 PM 35.6 °F - 30.2 °F 81% 30.07 in 10.0 mi Calm Calm - N/A   Overcast
12:53 PM 35.1 °F - 30.0 °F 82% 30.12 in 10.0 mi Calm Calm - N/A   Overcast
1:16 PM 33.8 °F 30.8 °F 30.2 °F 87% 30.06 in 10.0 mi SSE 3.5 mph - N/A   Overcast
1:53 PM 35.1 °F - 30.0 °F 82% 30.10 in 10.0 mi Calm Calm - N/A   Overcast
2:53 PM 35.1 °F - 30.0 °F 82% 30.09 in 10.0 mi Calm Calm - N/A   Overcast
3:53 PM 34.0 °F - 28.9 °F 82% 30.08 in 10.0 mi Calm Calm - N/A   Overcast
4:53 PM 33.1 °F - 28.9 °F 85% 30.06 in 10.0 mi Calm Calm - N/A   Overcast
5:53 PM 33.1 °F - 28.9 °F 85% 30.06 in 10.0 mi Calm Calm - N/A   Overcast
6:46 PM 33.8 °F - 28.4 °F 81% 30.00 in 10.0 mi Calm Calm - N/A   Overcast
6:53 PM 33.1 °F - 28.9 °F 85% 30.04 in 10.0 mi Calm Calm - N/A   Overcast
7:53 PM 33.1 °F - 28.9 °F 85% 30.03 in 10.0 mi Calm Calm - N/A   Overcast
8:53 PM 33.1 °F - 28.9 °F 85% 30.03 in 10.0 mi Calm Calm - N/A   Overcast
9:53 PM 32.0 °F - 28.9 °F 88% 30.03 in 9.0 mi Calm Calm - N/A   Overcast
10:53 PM 32.0 °F - 28.9 °F 88% 30.02 in 10.0 mi Calm Calm - N/A   Overcast
11:53 PM 32.0 °F - 28.9 °F 88% 30.01 in 9.0 mi Calm Calm - N/A   Overcast